AirNav   Everest Fuels
 
 444 users online  

MI57 Eagle Heliport
Romeo, Michigan, USA

GOING TO ROMEO?


FAA INFORMATION EFFECTIVE 17 JUNE 2021

Location

FAA Identifier: MI57
Lat/Long: 42-47-35.0000N 083-01-34.0000W
42-47.583333N 083-01.566667W
42.7930556,-83.0261111
(estimated)
Elevation: 605 ft. / 184 m (estimated)
From city: 1 mile SW of ROMEO, MI
Time zone: UTC -4 (UTC -5 during Standard Time)
Zip code: 48095

Heliport Operations

Heliport use: Private use. Permission required prior to landing
Activation date: 09/2004
Control tower: no
ARTCC: CLEVELAND CENTER
FSS: LANSING FLIGHT SERVICE STATION
Attendance: UNATNDD
Segmented circle: no

Heliport Communications

WX AWOS-3 at VLL (16 nm SW): 119.475 (248-288-4649)
WX ASOS at PTK (19 nm SW): 125.025 (248-886-8551)
WX AWOS-3P at D95 (20 nm NW): 134.050 (810-664-5038)

Nearby radio navigation aids

VOR radial/distance  VOR name  Freq  Var
FNTr114/33.4FLINT VORTAC116.9006W
SVMr050/34.1SALEM VORTAC114.3003W
DXOr029/37.9DETROIT VOR/DME113.4006W

Heliport Services

Runway Information

Helipad H1

Dimensions: 16 x 16 ft. / 5 x 5 m
Surface: concrete
Traffic pattern: leftleft

Heliport Ownership and Management from official FAA records

Ownership: Privately-owned
Owner: WILLIAM ZICHICHI
67400 ROSE DRIVE
WASHINGTON, MI 48095
Phone 586-336-0854
Manager: WILLIAM ZICHICHI
67400 ROSE DRIVE
WASHINGTON, MI 48095
Phone 586-336-0854

Additional Remarks

FOR CD CTC CLEVELAND ARTCC AT 440-774-0490.

Instrument Procedures

There are no published instrument procedures at MI57.

Some nearby airports with instrument procedures:

D98 - Romeo State Airport (2 nm E)
57D - Ray Community Airport (7 nm SE)
KMTC - Selfridge Air National Guard Base (14 nm SE)
KVLL - Oakland/Troy Airport (16 nm SW)
KPTK - Oakland County International Airport (19 nm SW)
D95 - Dupont-Lapeer Airport (20 nm NW)
 
Loc | Ops | Rwys | IFR | FBO | Links
Com | Nav | Svcs | Stats | Notes
Area around MI57 (Eagle Heliport)
 
Road maps at: MapQuest Bing Google
 
Aerial photo
No photo
 
Sectional chart

 
Airport distance calculator
Flying to Eagle Heliport? Find the distance to fly.

From to MI57

Sunrise and sunset
Times for 22-Jun-2021
 Local
(UTC-4)
 Zulu
(UTC)
Morning civil twilight05:2009:20
Sunrise05:5509:55
Sunset21:1301:13
Evening civil twilight21:4801:48

Current date and time
Zulu (UTC)  22-Jun-2021 06:01:38
Local (UTC-4)  22-Jun-2021 02:01:38
 
METAR
KMTC 
14nm SE 
220556Z AUTO 30006KT 10SM SCT033 10/06 A2987 RMK AO2 SLP119 T00960063 10189 20096 51020
KVLL 
16nm SW 
220555Z AUTO 32005KT 10SM CLR 10/04 A2991 RMK AO2 T01010041 10181 20100 402510100
KPTK 
19nm SW 
220553Z AUTO 31009KT 10SM CLR 09/04 A2988 RMK AO2 SLP118 T00940039 10172 20094 51014
KD95 
20nm NW 
220555Z AUTO 30005KT 10SM CLR 08/04 A2990 RMK AO2 T00780043 10153 20078 402410078
KDET 
24nm S 
220553Z 33007KT 10SM CLR 12/03 A2989 RMK AO2 SLPNO T01170033 10200 20117 51021
KPHN 
24nm E 
220555Z AUTO 33006KT 10SM OVC034 11/02 A2988 RMK AO2
TAF
KMTC 
14nm SE 
220105Z 2201/2307 32010G15KT 9999 BKN060 QNH2973INS BECMG 2203/2204 31009KT 9999 FEW035 QNH2982INS BECMG 2219/2220 26007KT 9999 SCT060 QNH2996INS TX20/2220Z TN08/2209Z LAST NO AMDS AFT 2203 NEXT 2209
KPTK 
19nm SW 
220520Z 2206/2306 33013KT P6SM FEW030 FM220800 33005KT P6SM SKC FM221400 29007KT P6SM SCT060 FM221800 25009KT P6SM BKN060 FM230100 23004KT P6SM FEW070
NOTAMs
Click for the latest NOTAMs
NOTAMs are issued by the DoD/FAA and will open in a separate window not controlled by AirNav.

 

 
 

Would you like to see your business listed on this page?

 If your business provides an interesting product or service to pilots, flight crews, aircraft, or users of the Eagle Heliport, you should consider listing it here.  To start the listing process, click on the button below
 
Add a business
 

Other Pages about Eagle Heliport

Update a link
 
Copyright © AirNav, LLC. All rights reserved. Privacy Policy  Contact